Notices

What's New in latest Release from April 7th, 2021:

- Updated Glossary, including Speed of Maximum Gust, and Total Hourly Precipitation

- Updated national and regional climate services offices contacts and prices information

- Addition of station inventory lists for 1981-2010, 1971-2000, and 1961-1990 Normals.

If you haven't already, please take our survey and provide feedback about our website: https://eccc.sondage-survey.ca/f/LanguageSelection.aspx?s=442ca660-fcf1-47c0-95a9-59707d6fd709

Hourly Data Report for March 20, 2017

MIRAMICHI RCS
NEW BRUNSWICK

47°00'34.000" N
65°27'54.000" W
33.00 m
8100989
71744
ACQ

Download Data

Hourly Data (March 2017)
Hourly Data Report for March 20, 2017
TIME
LST
Temp Definition
°C
Dew Point Definition
°C
Rel Hum Definition
%
Precip. Amount Definition
mm

Wind Dir Definition
10's deg

Wind Spd Definition
km/h
Visibility Definition
km
Stn Press Definition
kPa
Hmdx Definition


Wind Chill Definition


Weather Definition


00:00 -5.3 -7.2 86 0.0 2 6   101.90   -8 LegendNANA
01:00 -5.4 -7.1 88 0.0 2 9   101.82   -9 LegendNANA
02:00 -5.6 -7.4 87 0.0 1 9   101.77   -10 LegendNANA
03:00 -6.3 -8.3 85 0.0 3 8   101.74   -10 LegendNANA
04:00 -6.6 -8.8 85 0.0 3 8   101.69   -10 LegendNANA
05:00 -6.9 -8.8 86 0.0 2 9   101.65   -11 LegendNANA
06:00 -6.7 -8.5 87 0.0 2 10   101.67   -11 LegendNANA
07:00 -7.1 -8.5 90 0.0   0   101.70     LegendNANA
08:00 -4.3 -7.8 76 0.0 1 10   101.68   -8 LegendNANA
09:00 -2.4 -7.9 66 0.0 3 15   101.64   -7 LegendNANA
10:00 -0.7 -6.4 65 0.0 6 20   101.61   -6 LegendNANA
11:00 -0.6 -6.1 66 0.0 7 29   101.57   -7 LegendNANA
12:00 -0.8 -5.6 70 0.0 8 29   101.51   -7 LegendNANA
13:00 0.2 -5.7 65 0.0 8 27   101.42     LegendNANA
14:00 -0.1 -5.8 65 0.0 7 24   101.38   -6 LegendNANA
15:00 -1.0 -6.1 68 0.0 7 29   101.31   -8 LegendNANA
16:00 -1.4 -5.4 74 0.0 8 26   101.27   -8 LegendNANA
17:00 -1.7 -5.1 77 0.0 8 24   101.17   -8 LegendNANA
18:00 -2.3 -5.5 79 0.0 6 15   101.12   -7 LegendNANA
19:00 -3.6 -6.2 82 0.0 7 12   101.15   -8 LegendNANA
20:00 -4.2 -6.4 84 0.0 7 13   101.13   -9 LegendNANA
21:00 -4.1 -6.1 86 0.0 4 9   101.06   -8 LegendNANA
22:00 -3.8 -5.4 88 0.0 4 12   100.99   -8 LegendNANA
23:00 -4.1 -5.8 87 0.0 4 7   100.90   -7 LegendNANA

Notes on Data Quality.

Legend

  • E = Estimated
  • M = Missing
  • NA = Not Available*
  • [empty] = Indicates an unobserved value
Date modified: